When you browse on this site, cookies collect data to enhance your experience and personalize the content and advertising you see.
Visit our Privacy Policy to learn more. By continuing to use the site, you agree to this use of cookies and data.
  • Em Portugal
  • Lista de países
  • Para 7 dias
  • Temperatura da água
  • Mapas de satélite
  • Mapa do tempo
  • Widgets de tempo
  • user-avatar
    Iniciar Sessão

    Previsão horária em Dabek

    Hoje, 17 Junho, Segunda-feira

    Tempo Temperatura Precipitação Vento Pressão Humidade
    00:00 +14°C° 0 mm 3 m/s 751 mmHg 95%
    01:00 +13°C° 0 mm 3 m/s 751 mmHg 95%
    02:00 +13°C° 0 mm 3 m/s 751 mmHg 95%
    03:00 +13°C° 0 mm 3 m/s 751 mmHg 94%
    04:00 +12°C° 0 mm 3 m/s 751 mmHg 93%
    05:00 +14°C° 0 mm 4 m/s 751 mmHg 90%
    06:00 +15°C° 0 mm 4 m/s 752 mmHg 86%
    07:00 +17°C° 0 mm 4 m/s 752 mmHg 83%
    08:00 +18°C° 0 mm 4 m/s 752 mmHg 80%
    09:00 +19°C° 0 mm 5 m/s 752 mmHg 78%
    10:00 +20°C° 0 mm 5 m/s 752 mmHg 75%
    11:00 +21°C° 0 mm 5 m/s 752 mmHg 75%
    12:00 +21°C° 0 mm 5 m/s 752 mmHg 75%
    13:00 +21°C° 0 mm 4 m/s 752 mmHg 75%
    14:00 +21°C° 0 mm 5 m/s 752 mmHg 73%
    15:00 +22°C° 0 mm 5 m/s 752 mmHg 72%
    16:00 +22°C° 0 mm 5 m/s 752 mmHg 70%
    17:00 +21°C° 0 mm 4 m/s 752 mmHg 73%
    18:00 +19°C° 0 mm 4 m/s 752 mmHg 76%
    19:00 +18°C° 0 mm 3 m/s 752 mmHg 79%
    20:00 +17°C° 0 mm 3 m/s 752 mmHg 82%
    21:00 +14°C° 0 mm 3 m/s 753 mmHg 84%
    22:00 +14°C° 0 mm 2 m/s 753 mmHg 87%
    23:00 +14°C° 0 mm 2 m/s 753 mmHg 88%

    Amanhã, 18 Junho, Terça-feira

    Tempo Temperatura Precipitação Vento Pressão Humidade
    00:00 +13°C° 0 mm 2 m/s 753 mmHg 88%
    01:00 +13°C° 0 mm 2 m/s 753 mmHg 89%
    02:00 +13°C° 0 mm 2 m/s 753 mmHg 89%
    03:00 +13°C° 0 mm 2 m/s 753 mmHg 88%
    04:00 +12°C° 0 mm 2 m/s 753 mmHg 88%
    05:00 +14°C° 0 mm 2 m/s 753 mmHg 84%
    06:00 +16°C° 0 mm 2 m/s 753 mmHg 80%
    07:00 +17°C° 0 mm 2 m/s 753 mmHg 76%
    08:00 +19°C° 0 mm 2 m/s 753 mmHg 70%
    09:00 +20°C° 0 mm 2 m/s 753 mmHg 65%
    10:00 +21°C° 0 mm 3 m/s 753 mmHg 60%
    11:00 +22°C° 0 mm 3 m/s 753 mmHg 58%
    12:00 +24°C° 0 mm 3 m/s 752 mmHg 56%
    13:00 +24°C° 0 mm 3 m/s 752 mmHg 55%
    14:00 +24°C° 0 mm 3 m/s 752 mmHg 57%
    15:00 +24°C° 0 mm 3 m/s 751 mmHg 59%
    16:00 +24°C° 0 mm 3 m/s 751 mmHg 62%
    17:00 +22°C° 0 mm 3 m/s 751 mmHg 67%
    18:00 +21°C° 0 mm 3 m/s 750 mmHg 72%
    19:00 +20°C° 0 mm 3 m/s 750 mmHg 77%
    20:00 +19°C° 0 mm 3 m/s 750 mmHg 77%
    21:00 +18°C° 0 mm 3 m/s 750 mmHg 77%
    22:00 +17°C° 0 mm 3 m/s 750 mmHg 76%
    23:00 +17°C° 0 mm 3 m/s 750 mmHg 78%

    Depois de amanhã, 19 Junho, Quarta-feira

    Tempo Temperatura Precipitação Vento Pressão Humidade
    00:00 +17°C° 0 mm 3 m/s 750 mmHg 80%
    01:00 +16°C° 0 mm 3 m/s 749 mmHg 82%
    02:00 +17°C° 0 mm 3 m/s 749 mmHg 83%
    03:00 +17°C° 0 mm 3 m/s 749 mmHg 85%
    04:00 +17°C° 0 mm 4 m/s 749 mmHg 87%
    05:00 +17°C° 0 mm 4 m/s 748 mmHg 86%
    06:00 +18°C° 0 mm 4 m/s 748 mmHg 85%
    07:00 +17°C° 0 mm 5 m/s 748 mmHg 84%
    08:00 +17°C° 0 mm 5 m/s 748 mmHg 85%
    09:00 +17°C° 0 mm 5 m/s 748 mmHg 86%
    10:00 +17°C° 0 mm 5 m/s 748 mmHg 86%
    11:00 +20°C° 0 mm 5 m/s 747 mmHg 84%
    12:00 +21°C° 0 mm 6 m/s 747 mmHg 82%
    13:00 +22°C° 0 mm 6 m/s 747 mmHg 79%
    14:00 +22°C° 0.1 mm 6 m/s 746 mmHg 81%
    15:00 +22°C° 0.1 mm 5 m/s 746 mmHg 82%
    16:00 +23°C° 0.1 mm 4 m/s 746 mmHg 83%
    17:00 +22°C° 0.7 mm 4 m/s 745 mmHg 85%
    18:00 +22°C° 0.7 mm 3 m/s 745 mmHg 87%
    19:00 +22°C° 0.7 mm 3 m/s 745 mmHg 88%
    20:00 +21°C° 0.3 mm 2 m/s 745 mmHg 90%
    21:00 +20°C° 0.3 mm 2 m/s 745 mmHg 92%
    22:00 +20°C° 0.3 mm 1 m/s 745 mmHg 94%
    23:00 +20°C° 0 mm 1 m/s 745 mmHg 94%

    20 Junho, Quinta-feira

    Tempo Temperatura Precipitação Vento Pressão Humidade
    00:00 +19°C° 0 mm 2 m/s 744 mmHg 94%
    01:00 +19°C° 0 mm 2 m/s 744 mmHg 94%
    02:00 +18°C° 0 mm 2 m/s 745 mmHg 95%
    03:00 +18°C° 0 mm 2 m/s 745 mmHg 95%
    04:00 +18°C° 0 mm 2 m/s 745 mmHg 96%
    05:00 +19°C° 0 mm 2 m/s 745 mmHg 92%
    06:00 +21°C° 0 mm 2 m/s 745 mmHg 89%
    07:00 +23°C° 0 mm 2 m/s 745 mmHg 85%
    08:00 +25°C° 0 mm 2 m/s 746 mmHg 78%
    09:00 +26°C° 0 mm 2 m/s 746 mmHg 72%
    10:00 +28°C° 0 mm 2 m/s 746 mmHg 66%
    11:00 +28°C° 0 mm 2 m/s 746 mmHg 62%
    12:00 +29°C° 0 mm 2 m/s 746 mmHg 57%
    13:00 +30°C° 0 mm 2 m/s 746 mmHg 53%
    14:00 +30°C° 0 mm 2 m/s 746 mmHg 53%
    15:00 +30°C° 0 mm 1 m/s 746 mmHg 53%
    16:00 +30°C° 0 mm 1 m/s 746 mmHg 53%
    17:00 +29°C° 0 mm 1 m/s 746 mmHg 58%
    18:00 +27°C° 0 mm 1 m/s 746 mmHg 63%
    19:00 +26°C° 0 mm 1 m/s 746 mmHg 69%
    20:00 +25°C° 0.3 mm 1 m/s 747 mmHg 74%
    21:00 +23°C° 0.3 mm 2 m/s 747 mmHg 79%
    22:00 +21°C° 0.3 mm 2 m/s 748 mmHg 84%
    23:00 +20°C° 1 mm 2 m/s 748 mmHg 87%

    21 Junho, Sexta-feira

    Tempo Temperatura Precipitação Vento Pressão Humidade
    00:00 +20°C° 1 mm 2 m/s 748 mmHg 91%
    01:00 +20°C° 1 mm 1 m/s 748 mmHg 94%
    02:00 +19°C° 0.7 mm 2 m/s 748 mmHg 95%
    03:00 +19°C° 0.7 mm 3 m/s 748 mmHg 96%
    04:00 +18°C° 0.7 mm 3 m/s 748 mmHg 96%
    05:00 +18°C° 0.2 mm 3 m/s 748 mmHg 96%
    06:00 +18°C° 0.2 mm 3 m/s 748 mmHg 95%
    07:00 +18°C° 0.2 mm 3 m/s 748 mmHg 94%
    08:00 +19°C° 0 mm 3 m/s 748 mmHg 93%
    09:00 +20°C° 0 mm 3 m/s 748 mmHg 91%
    10:00 +20°C° 0 mm 3 m/s 748 mmHg 89%
    11:00 +22°C° 0.1 mm 3 m/s 748 mmHg 82%
    12:00 +25°C° 0.1 mm 3 m/s 748 mmHg 75%
    13:00 +27°C° 0.1 mm 3 m/s 747 mmHg 68%
    14:00 +27°C° 0.4 mm 3 m/s 747 mmHg 69%
    15:00 +26°C° 0.4 mm 3 m/s 747 mmHg 70%
    16:00 +26°C° 0.4 mm 3 m/s 747 mmHg 72%
    17:00 +25°C° 0 mm 3 m/s 747 mmHg 76%
    18:00 +25°C° 0 mm 3 m/s 747 mmHg 81%
    19:00 +24°C° 0 mm 3 m/s 747 mmHg 86%
    20:00 +22°C° 0 mm 3 m/s 747 mmHg 89%
    21:00 +21°C° 0 mm 3 m/s 747 mmHg 92%
    22:00 +19°C° 0 mm 3 m/s 747 mmHg 95%
    23:00 +19°C° 0 mm 3 m/s 747 mmHg 95%

    22 Junho, Sábado

    Tempo Temperatura Precipitação Vento Pressão Humidade
    00:00 +19°C° 0 mm 2 m/s 747 mmHg 96%
    01:00 +19°C° 0 mm 2 m/s 747 mmHg 96%
    02:00 +18°C° 0 mm 2 m/s 747 mmHg 96%
    03:00 +18°C° 0 mm 2 m/s 746 mmHg 96%
    04:00 +18°C° 0 mm 2 m/s 746 mmHg 96%
    05:00 +19°C° 0 mm 3 m/s 746 mmHg 94%
    06:00 +20°C° 0 mm 3 m/s 746 mmHg 91%
    07:00 +22°C° 0 mm 3 m/s 746 mmHg 89%
    08:00 +24°C° 0 mm 3 m/s 746 mmHg 84%
    09:00 +25°C° 0 mm 3 m/s 746 mmHg 79%
    10:00 +27°C° 0 mm 3 m/s 746 mmHg 75%
    11:00 +28°C° 1.4 mm 3 m/s 746 mmHg 72%
    12:00 +28°C° 1.4 mm 3 m/s 746 mmHg 69%
    13:00 +29°C° 1.4 mm 2 m/s 746 mmHg 66%
    14:00 +29°C° 1.1 mm 2 m/s 745 mmHg 67%
    15:00 +29°C° 1.1 mm 3 m/s 745 mmHg 67%
    16:00 +29°C° 1.1 mm 3 m/s 745 mmHg 68%
    17:00 +27°C° 2 mm 3 m/s 745 mmHg 75%
    18:00 +25°C° 2 mm 3 m/s 745 mmHg 82%
    19:00 +22°C° 2 mm 3 m/s 745 mmHg 89%
    20:00 +21°C° 0.6 mm 4 m/s 745 mmHg 91%
    21:00 +20°C° 0.6 mm 4 m/s 745 mmHg 93%
    22:00 +19°C° 0.6 mm 4 m/s 745 mmHg 96%
    23:00 +19°C° 0 mm 3 m/s 745 mmHg 96%
    Mostrar mais